Regional Weather Roundup
Issued by NWS

Home | Current Version | Previous Version | Graphics & Text | Print | Product List | Glossary On
Versions: 1 2 3 4 5 6 7 8 9 10 11 12 13 14 15 16 17 18 19 20 21 22 23 24 25 26 27 28 29 30 31 32 33 34 35 36 37 38 39 40 41 42 43 44 45 46 47 48 49 50
000
ASUS43 KLSX 241359
RWRMO

WEATHER SUMMARY FOR MISSOURI
NATIONAL WEATHER SERVICE SPRINGFIELD MO
900 AM CDT WED MAY 24 2017

NOTE: "FAIR" INDICATES FEW OR NO CLOUDS BELOW 12,000 FEET WITH NO
       SIGNIFICANT WEATHER AND/OR OBSTRUCTIONS TO VISIBILITY.
       CURRENT SKY AND/OR WEATHER CONDITIONS ARE NOT AVAILABLE FOR
       CHILLICOTHE AND FARMINGTON.

MOZ001>031-035>038-043-044-053-054-241500-
...NORTHERN AND WESTERN MISSOURI...

CITY           SKY/WX    TMP DP  RH WIND       PRES   REMARKS
KANSAS CTY INT LGT RAIN  52  49  89 NW10G21   29.71S
KANSAS C DTWN  CLOUDY    54  50  86 NW9       29.71S
LEE`S SUMMIT   CLOUDY    52  50  93 NW9       29.71S
ST JOSEPH      CLOUDY    54  50  86 NW15      29.72S
CHILLICOTHE      N/A     53  49  86 VRB3      29.69R
KIRKSVILLE     CLOUDY    52  49  89 N10       29.66R

$$
MOZ066>068-077>081-088>096-101>105-241500-
...SOUTHWEST MISSOURI...

CITY           SKY/WX    TMP DP  RH WIND       PRES   REMARKS
SPRINGFIELD    PTSUNNY   54  47  77 NW9       29.69S
JOPLIN         PTSUNNY   54  48  80 NW12      29.75R
BRANSON        PTSUNNY   55  48  76 NW9       29.70S

$$
MOZ032>034-039>042-045>050-055>058-069>072-241500-
...CENTRAL MISSOURI...

CITY           SKY/WX    TMP DP  RH WIND       PRES   REMARKS
COLUMBIA       MOSUNNY   55  49  80 NW6       29.65S
JEFFERSON CITY MOSUNNY   56  48  74 W12       29.65S
ROLLA          MOSUNNY   52  49  89 W9        29.63S
SEDALIA        PTSUNNY   53  50  89 NW12      29.69R
WARRENSBURG    CLOUDY    52  46  82 NW6       29.69S
OSAGE BEACH    PTSUNNY   54  48  80 W6        29.67S

$$
MOZ051-052-059>065-241500-
...EAST CENTRAL MISSOURI...

CITY           SKY/WX    TMP DP  RH WIND       PRES   REMARKS
ST LOUIS INTL  MOSUNNY   61  51  70 NW10      29.60S
SPIRIT OF STL  CLOUDY    57  50  77 NW7       29.60F
ST CHARLES     SUNNY     59  51  75 NW12      29.59S

$$
MOZ072>076-082>087-097>100-106>115-241500-
...SOUTH CENTRAL AND SOUTHEAST MISSOURI...

CITY           SKY/WX    TMP DP  RH WIND       PRES   REMARKS
CAPE GIRARDEAU CLOUDY    60  52  74 N10       29.56S
FARMINGTON     SUNNY     58  48  69 N8        29.60F
POPLAR BLUFF   MOSUNNY   60  54  80 NW10      29.59R
WEST PLAINS    CLOUDY    57  49  74 N10       29.66S

$$




USA.gov is the U.S. government's official web portal to all federal, state and local government web resources and services.